Theta_e
322 326 324 319 320 319 317 316 316 316 320 326 331 333 339 346 345 345 347 346 345 346 345 345 345 344 345 344 342 340 338 339 338 337 338 338 337 337 337 337 336 336 336 336 337 338 338 339 342 345 347 349 350 350 350 351 352 353 354 354 353 352 350 348 348 350 349 349 351 353 354 355 356 355 354 352 351 350 350 350 350 351 350 350 350 350 350
323 323 321 321 322 318 316 318 317 318 321 328 335 338 342 347 344 343 346 345 344 344 342 342 341 339 341 341 340 339 338 338 337 337 337 337 336 336 336 336 336 336 335 335 335 336 337 337 339 340 342 345 347 347 348 349 349 351 354 355 353 354 353 352 352 352 352 353 354 354 354 354 355 354 353 353 351 351 351 351 351 350 350 350 349 349 349
323 323 322 319 320 319 317 318 319 320 322 325 334 340 342 343 342 342 344 343 344 344 340 338 337 337 339 339 340 339 337 336 337 337 336 336 336 335 335 335 335 335 336 335 335 336 336 336 337 338 340 342 343 343 345 346 346 347 349 350 352 353 355 356 356 355 353 353 354 354 354 354 354 354 353 353 351 350 350 351 352 351 350 350 350 349 348
322 321 320 317 321 322 319 318 319 319 319 318 327 340 342 341 341 341 341 342 342 341 337 336 336 337 337 338 339 338 336 336 336 336 336 335 334 334 334 334 334 334 334 334 333 334 335 336 336 336 339 340 341 341 341 342 344 344 344 344 345 347 349 352 356 357 356 355 355 356 356 356 355 355 354 354 353 352 351 351 352 353 352 350 350 349 349
322 321 320 318 321 321 320 321 319 318 320 318 324 337 342 340 340 340 339 340 339 337 336 336 336 336 336 336 336 336 336 336 336 335 335 333 332 333 333 333 333 332 333 333 332 332 334 335 335 336 338 340 340 339 338 338 341 341 341 342 342 343 344 345 348 351 354 354 354 353 354 354 354 355 355 355 355 355 355 353 353 354 354 352 351 350 349
322 324 327 324 318 317 323 328 322 318 318 320 327 336 339 339 338 339 339 338 338 336 336 336 335 336 336 335 335 334 334 334 334 334 333 332 332 331 332 332 330 329 330 331 329 329 331 334 335 335 337 339 337 334 332 334 337 338 338 339 339 340 341 341 343 344 346 348 350 350 350 351 351 352 352 353 354 354 355 355 355 355 355 354 353 351 350
322 330 333 322 316 324 331 328 323 323 323 326 334 336 336 338 338 337 338 337 336 336 336 336 335 334 334 334 333 333 333 332 332 332 331 331 331 331 333 332 328 326 328 329 326 324 325 329 334 335 336 337 336 333 331 331 333 334 333 334 335 337 338 339 341 342 342 343 344 346 347 348 349 349 349 350 351 351 352 354 354 355 355 355 355 354 352
323 329 329 321 322 332 333 324 322 328 328 331 338 337 334 336 337 337 338 336 335 336 337 337 338 335 332 332 333 332 332 332 331 331 330 330 330 330 329 328 324 323 326 326 324 323 324 328 333 334 334 335 335 334 333 331 330 330 329 329 331 334 336 336 338 341 343 343 342 343 344 345 346 347 347 348 349 349 351 352 354 354 354 354 354 355 354
323 323 327 330 327 324 325 327 325 323 323 329 338 338 334 334 335 335 336 335 334 335 335 336 337 334 330 331 331 330 330 330 329 329 329 328 328 326 324 321 321 322 324 323 323 325 328 330 333 333 332 333 334 334 333 332 332 331 330 329 328 331 334 335 335 337 339 339 339 341 343 344 344 343 344 344 345 346 349 351 353 353 354 354 354 354 354
329 328 328 330 326 320 326 334 329 321 322 330 337 336 332 332 334 334 335 335 334 335 334 333 333 331 331 332 331 327 326 325 324 325 326 325 323 322 320 321 322 322 322 322 322 324 326 327 330 331 330 330 332 332 332 332 333 332 332 330 329 330 332 333 333 334 335 334 334 337 340 341 342 342 343 344 343 343 346 349 351 353 354 355 354 355 354
332 331 325 323 325 326 334 342 335 323 322 327 334 336 333 331 331 332 333 334 334 334 333 332 332 333 334 333 330 325 322 321 320 321 322 321 320 320 320 321 322 321 321 322 322 323 323 324 326 328 328 328 328 328 328 329 330 332 333 331 330 329 331 331 330 330 331 332 333 334 335 336 337 339 342 345 345 344 344 345 348 351 353 355 355 355 355
331 329 322 323 329 329 332 336 330 321 321 328 333 333 333 332 331 331 332 334 333 333 332 333 334 333 332 330 326 321 319 318 319 319 318 318 319 321 321 321 321 321 321 321 322 322 322 323 323 324 325 325 326 326 326 326 327 329 332 332 329 328 331 332 331 328 326 327 331 332 332 334 336 336 337 340 343 345 346 345 346 348 350 353 355 355 355
326 323 319 324 332 333 329 327 326 325 325 325 326 327 331 334 331 328 329 329 329 329 329 329 329 327 325 323 320 319 318 317 317 317 317 319 321 320 320 320 320 320 320 321 321 321 321 321 322 323 324 324 325 325 325 325 325 326 328 329 327 327 330 332 332 329 326 323 325 329 331 333 333 333 334 335 338 343 347 348 347 345 344 347 351 352 353
322 323 322 325 332 332 326 325 331 333 325 320 324 327 329 329 327 325 325 325 324 324 323 322 322 321 319 319 318 318 318 318 316 316 317 319 320 319 319 319 319 319 319 320 321 320 320 321 321 321 322 323 323 324 323 323 323 324 325 325 325 327 330 331 331 330 327 323 320 325 331 332 330 332 333 333 336 343 347 346 344 342 340 340 341 342 344
320 321 322 326 333 333 329 329 335 335 329 327 331 331 326 326 326 324 323 322 321 320 320 319 319 318 318 318 319 319 319 318 317 316 317 318 318 318 318 317 318 318 318 319 320 320 320 320 320 320 320 321 321 321 321 321 321 322 324 324 325 327 329 329 329 328 328 325 321 323 328 329 329 332 333 332 337 344 349 347 344 342 340 339 337 336 335
322 320 318 324 334 335 333 335 335 332 332 334 334 328 324 325 325 323 322 322 319 318 318 318 318 318 318 318 319 319 320 318 317 316 317 318 318 318 317 317 317 318 318 319 319 319 319 318 319 319 319 319 319 319 319 319 319 320 322 323 324 325 325 326 327 328 328 326 324 324 326 327 330 332 332 332 335 340 343 343 340 337 337 338 338 337 335
330 332 327 328 334 333 330 334 334 331 331 333 331 327 325 324 322 321 321 321 319 318 318 318 318 318 317 318 318 319 319 318 317 316 317 317 318 317 317 317 317 318 318 319 318 318 318 318 317 318 317 318 318 318 318 319 319 319 320 321 322 323 324 324 326 328 328 326 326 326 326 328 330 331 330 331 331 331 332 334 333 333 335 336 336 335 334
330 335 332 330 331 330 328 329 330 329 329 329 329 328 327 325 322 321 321 321 320 318 318 318 319 317 317 317 318 319 320 318 316 317 318 317 317 317 317 317 318 318 318 318 317 317 317 317 317 317 317 317 318 318 318 319 319 319 319 319 321 322 323 324 325 326 327 327 326 326 327 329 329 329 329 328 327 327 328 331 332 332 333 334 335 334 333
326 328 330 330 328 328 329 329 329 329 329 328 328 328 328 326 324 322 322 322 322 320 319 319 319 317 317 318 318 319 320 318 316 316 317 317 317 317 316 317 317 317 317 317 316 316 316 317 317 317 317 317 317 318 318 318 318 318 318 319 319 320 322 323 324 324 326 327 326 326 327 328 328 328 328 326 325 326 328 330 331 331 331 332 333 333 333
326 324 329 331 327 326 329 328 327 328 327 327 328 328 327 326 325 321 319 319 321 322 321 320 320 319 318 318 319 320 320 317 316 316 316 316 316 316 316 317 316 316 316 316 315 316 317 317 317 316 316 316 316 317 318 318 318 319 318 318 319 319 319 321 322 322 323 325 326 326 326 327 327 327 326 324 324 325 327 328 329 330 330 331 331 331 332
327 327 329 330 327 325 327 329 328 326 325 324 325 325 325 324 324 322 320 318 318 319 318 318 319 321 320 318 318 320 318 315 315 316 316 315 316 316 315 316 315 314 314 315 315 316 316 316 316 315 315 315 316 317 318 318 318 318 318 318 318 318 318 319 320 321 322 323 326 326 326 326 325 324 323 322 322 322 323 325 328 329 329 328 328 329 329
330 332 329 328 328 326 325 326 328 328 327 326 325 324 325 325 325 326 324 319 316 316 315 315 318 322 321 317 316 317 316 315 315 316 316 315 315 314 314 314 313 313 314 315 316 316 315 314 315 316 317 318 319 320 320 320 319 319 319 319 319 319 319 319 319 320 321 323 325 327 326 325 324 324 323 322 321 321 324 326 328 329 328 327 327 327 324
332 330 327 328 329 328 325 324 327 329 330 330 329 327 326 327 324 324 325 323 321 319 316 314 315 319 318 316 315 315 315 315 315 316 316 315 314 314 313 313 313 314 315 316 315 314 314 315 317 318 320 320 320 320 320 320 320 320 319 320 320 320 319 319 318 319 320 321 324 325 325 324 324 324 323 322 321 323 325 326 326 326 325 325 325 323 320
329 326 327 328 327 325 323 323 326 327 326 330 333 332 330 328 322 319 321 322 321 322 321 316 314 316 315 315 315 315 314 315 315 315 315 315 314 313 313 312 314 315 315 315 314 314 315 317 318 318 319 319 319 318 318 318 319 319 319 320 320 321 320 320 319 319 320 321 323 325 326 325 324 324 324 324 324 325 326 326 325 324 323 322 320 318 320
332 329 327 326 325 326 324 322 322 322 320 324 330 330 328 327 323 319 320 319 317 318 319 316 315 316 315 315 315 315 314 315 315 315 315 314 313 313 313 314 315 315 314 313 314 315 316 317 316 316 317 317 316 316 317 317 317 318 318 319 319 320 321 322 322 321 322 323 325 326 326 326 325 325 325 324 324 324 324 324 324 323 322 321 319 318 321
332 329 326 324 326 328 326 323 324 323 320 321 325 324 322 322 322 319 319 319 317 316 316 314 315 316 316 315 315 314 314 315 315 314 314 313 312 313 314 314 315 314 313 314 314 315 316 315 314 315 316 315 314 314 314 315 315 316 317 317 318 319 321 322 323 323 323 324 325 325 325 325 325 325 324 323 322 321 321 321 321 321 320 319 318 318 320
328 327 325 325 325 325 325 325 325 323 319 318 320 320 319 319 320 318 317 318 319 317 315 315 315 315 315 315 315 314 315 315 315 313 312 312 313 314 314 314 314 313 313 315 315 314 314 313 313 314 315 314 313 313 312 312 313 314 314 315 316 318 319 320 321 321 322 322 322 322 322 323 323 322 322 321 320 320 320 321 321 321 321 320 319 319 320
326 326 325 326 328 327 326 324 321 320 319 318 318 319 318 319 319 319 320 320 319 318 317 316 315 315 315 315 315 315 315 315 313 312 312 313 313 314 314 314 313 313 313 314 313 313 313 313 313 314 314 313 312 312 311 311 311 312 313 314 315 316 317 317 318 319 319 320 320 321 321 321 321 321 321 321 320 320 321 321 321 321 322 321 321 320 321
324 324 324 326 326 324 322 320 321 322 321 319 317 317 319 320 321 323 324 322 319 319 319 317 316 315 314 314 314 314 314 313 312 312 313 313 313 313 313 313 313 313 313 313 312 312 313 313 314 313 312 311 311 311 311 310 310 311 312 314 314 315 315 315 315 316 317 318 318 319 320 320 320 320 320 320 320 320 320 321 321 321 322 322 322 321 321
323 323 324 324 322 321 320 321 324 325 322 319 319 319 319 320 322 324 325 321 318 318 319 318 316 315 313 313 314 313 312 312 312 312 313 313 313 312 312 312 312 312 312 312 312 312 313 313 312 312 311 311 310 310 309 309 310 311 312 313 313 312 312 312 313 313 314 315 316 317 317 318 318 319 319 319 319 319 319 320 320 320 321 321 321 321 322
322 323 324 323 322 322 322 322 324 324 322 320 321 321 320 321 323 324 325 322 319 317 318 318 317 315 313 313 313 313 312 312 312 312 312 312 312 312 311 311 311 311 311 311 311 311 312 312 311 310 310 309 308 308 308 309 310 311 311 311 311 311 311 311 311 311 312 313 314 314 315 316 316 316 316 316 316 317 317 318 319 319 320 321 321 321 321
318 318 320 321 321 321 322 321 321 322 322 322 321 321 321 321 322 323 323 322 319 317 317 318 317 316 314 313 313 312 312 312 311 312 312 311 311 311 311 310 310 310 310 310 310 311 311 310 309 309 308 307 306 306 307 308 309 309 309 309 309 309 309 310 310 309 310 311 312 313 314 314 314 314 314 314 315 316 317 318 318 318 319 319 319 319 319
318 317 316 317 319 319 320 319 318 319 321 320 318 317 317 317 318 319 319 319 318 318 317 317 317 317 315 313 312 312 311 311 311 311 311 310 310 310 310 310 309 309 309 309 310 310 310 309 308 308 307 306 305 306 306 307 308 308 308 307 307 307 308 308 308 309 310 311 312 313 313 312 312 312 312 313 315 316 316 316 316 317 317 317 318 318 317
318 318 315 314 315 315 316 317 318 319 319 317 314 313 314 316 317 317 317 317 317 317 317 317 317 317 316 314 312 311 311 311 311 310 309 309 309 309 309 308 308 308 309 309 308 308 307 307 307 307 306 304 304 305 306 307 307 307 307 306 306 306 306 306 307 307 309 309 310 311 311 310 311 311 311 311 313 313 314 314 315 315 316 316 317 316 316
313 314 313 312 312 312 312 314 316 317 318 318 316 312 312 314 316 317 317 317 317 317 317 317 317 316 315 313 312 312 312 311 310 309 309 309 308 308 308 307 307 308 307 307 307 306 306 306 307 307 305 304 304 304 305 306 306 306 306 305 305 305 305 305 305 306 307 307 307 307 308 309 310 310 310 311 311 312 312 313 313 314 314 315 315 315 315
312 312 311 310 310 311 311 311 312 312 312 313 313 311 311 313 315 317 318 318 317 316 316 316 315 315 314 313 312 312 311 310 309 308 308 308 308 307 307 307 307 307 306 306 305 304 304 305 306 306 304 303 303 303 304 305 306 305 304 304 303 303 303 303 304 304 304 305 305 306 307 308 309 309 310 310 310 311 311 312 312 313 313 314 314 314 315
311 311 310 309 309 310 309 309 309 309 308 309 309 310 310 312 314 316 317 317 317 316 315 314 313 313 313 312 312 310 309 308 308 308 307 307 307 307 307 307 307 307 306 305 304 303 302 304 305 304 303 303 303 303 303 304 304 304 303 302 301 301 301 302 302 303 304 305 305 306 307 308 308 309 309 310 310 311 311 312 312 312 312 313 313 313 314
310 309 309 308 308 308 308 307 307 308 308 308 309 310 311 312 314 315 317 317 317 316 314 312 312 312 312 311 310 308 307 307 307 307 307 307 307 306 306 306 306 305 304 304 302 301 302 304 304 303 303 302 302 300 300 301 302 302 301 300 300 300 301 301 302 304 304 305 306 306 307 307 308 308 309 309 309 310 310 311 311 311 312 312 312 313 313
308 307 307 307 307 307 307 307 307 307 308 309 309 309 310 312 313 314 315 316 317 315 313 312 311 311 310 309 308 307 306 306 305 305 306 306 306 306 305 305 304 304 303 302 301 301 302 303 303 302 302 301 300 299 298 299 301 301 300 299 300 301 301 302 303 304 304 305 305 306 306 306 306 307 307 307 308 308 309 309 310 310 311 311 311 310 310
307 307 307 307 307 308 307 307 307 307 308 308 308 308 309 311 313 313 314 315 315 314 313 311 310 310 309 308 307 306 306 305 305 305 305 305 305 305 304 304 304 303 302 301 301 301 303 303 302 301 300 299 298 298 299 300 300 300 300 300 301 302 302 302 303 303 303 304 303 303 304 304 305 305 305 305 306 307 307 308 308 308 308 308 308 308 308
307 308 308 307 307 307 307 307 308 307 308 308 308 308 309 311 312 313 313 313 313 313 312 310 309 309 308 307 306 306 306 305 305 305 305 305 304 304 303 303 303 302 301 301 301 302 302 301 300 300 299 299 298 299 300 300 300 299 299 300 300 301 301 301 301 302 302 302 301 301 301 302 302 302 303 304 305 305 306 306 306 306 306 306 306 306 306
308 308 308 308 307 307 307 307 307 307 308 308 308 308 309 310 311 312 313 312 312 311 310 309 309 308 308 307 306 306 305 305 305 305 305 305 304 304 303 302 302 302 301 301 301 301 301 300 299 299 299 299 299 300 300 299 298 298 298 299 299 299 299 300 300 300 299 299 299 300 300 300 300 300 301 302 303 303 303 304 305 305 305 305 305 304 304
308 308 308 308 308 308 308 308 308 308 308 308 308 309 310 311 312 312 312 311 310 310 310 310 309 309 307 306 305 305 305 305 305 305 305 305 304 304 303 302 301 302 301 301 300 300 300 300 299 299 299 299 299 299 299 298 297 298 298 298 298 298 298 298 298 298 297 297 298 298 298 298 299 299 300 301 301 302 302 303 303 303 303 303 303 303 303
309 309 309 308 308 308 307 308 308 308 307 307 308 309 311 312 312 312 312 311 310 310 309 309 308 307 306 305 305 305 305 305 305 304 304 303 303 303 302 301 301 301 301 301 300 300 300 300 299 299 299 299 299 298 298 297 297 297 297 296 297 297 297 297 297 296 296 296 296 296 297 297 298 298 298 299 299 300 301 301 301 301 301 302 302 301 302
309 309 309 309 309 308 308 308 308 308 308 308 309 310 312 312 311 311 310 309 308 309 308 307 307 306 306 305 305 305 305 305 304 304 303 303 302 302 301 301 301 301 301 301 301 300 300 300 299 299 299 299 299 298 298 297 297 297 296 296 296 297 297 297 296 296 295 294 295 295 296 297 297 296 296 296 297 297 298 299 300 300 300 300 300 300 300
309 309 309 309 309 309 308 308 308 308 308 308 308 309 310 310 310 309 309 308 308 308 308 306 306 306 305 305 305 305 305 305 305 304 304 303 302 302 301 301 301 301 301 301 301 301 300 300 299 299 299 299 299 298 298 297 297 297 297 296 296 296 296 296 296 295 294 294 294 295 295 295 295 295 294 295 295 295 295 297 298 298 298 298 298 298 298
308 308 308 308 308 308 308 308 308 308 307 306 305 306 307 308 308 308 307 306 306 306 306 306 305 305 305 305 305 305 305 305 304 304 304 303 302 302 302 301 301 302 302 301 301 301 300 300 299 299 299 299 298 298 298 298 297 297 297 296 296 296 295 295 295 295 294 294 294 294 294 294 294 293 293 293 294 293 293 294 295 296 296 296 296 296 297
308 308 308 308 308 308 308 308 308 307 307 306 305 305 305 305 304 305 306 306 305 304 305 306 306 305 305 305 305 305 305 304 303 303 303 303 302 302 302 302 302 302 302 301 301 301 301 300 299 299 299 299 298 298 298 298 297 297 297 296 296 296 295 295 295 295 294 294 293 293 293 293 293 292 292 292 293 292 292 292 293 294 294 294 294 295 295
308 308 308 308 308 308 308 308 308 308 307 306 305 304 304 303 303 304 307 308 306 306 306 307 307 306 306 306 306 305 304 303 303 302 302 302 302 302 302 302 303 303 302 301 301 301 301 300 300 300 299 299 298 298 298 298 297 297 296 296 296 295 295 295 295 295 294 293 293 292 293 292 292 291 291 292 292 292 292 292 292 292 293 293 293 293 294
308 308 308 308 308 308 308 308 308 308 308 307 307 306 306 306 306 306 307 308 307 307 307 307 307 306 306 305 305 305 304 303 302 302 302 302 301 302 302 302 303 302 302 301 301 301 301 301 300 300 300 299 299 298 298 298 297 297 296 296 296 295 295 295 295 294 294 293 292 292 292 292 291 291 291 291 291 291 292 291 291 291 292 292 292 292 293
308 308 308 308 308 308 308 308 308 308 308 308 308 307 307 307 308 308 308 308 307 307 306 306 306 305 304 304 304 304 303 303 302 302 302 302 302 302 302 302 302 302 302 302 301 301 301 301 301 300 300 300 299 299 298 298 297 297 297 296 295 295 295 295 294 294 294 293 293 292 292 292 291 291 291 291 291 291 291 291 290 290 290 291 291 291 292
306 307 307 307 307 308 308 308 308 308 308 308 308 307 306 307 307 308 307 307 307 306 305 305 305 304 304 304 303 303 303 303 302 302 302 302 302 302 302 302 302 302 302 302 302 301 301 301 301 300 300 300 300 299 299 298 297 297 297 296 296 295 295 294 294 294 294 294 293 293 293 292 292 292 292 291 290 290 290 290 290 290 290 290 290 290 291
Wind_Speed
4 1 1 5 7 5 4 7 7 7 6 6 5 5 6 6 6 7 9 13 16 14 12 13 12 10 9 9 10 10 10 10 10 11 12 12 11 12 12 10 9 9 9 10 13 16 18 18 16 15 15 15 15 14 11 8 8 7 6 7 9 9 11 14 16 19 24 24 22 20 20 20 20 20 20 19 17 17 16 19 24 27 28 28 29 30 31
7 6 5 6 8 6 7 7 6 6 6 7 7 5 4 6 10 14 14 12 11 11 11 12 11 11 11 10 9 10 11 10 11 12 13 13 12 11 11 10 8 8 10 13 15 17 18 19 18 18 17 16 17 19 17 13 10 10 12 13 13 11 11 12 13 17 19 18 17 18 19 19 18 20 21 21 19 17 14 12 14 20 25 27 27 29 31
6 7 8 8 6 6 6 7 7 8 8 7 6 6 8 11 12 14 16 12 7 6 8 9 10 11 11 10 9 10 10 11 12 13 12 12 11 10 10 10 8 8 10 12 14 16 17 17 18 19 19 19 20 21 22 20 15 13 16 18 17 14 11 10 10 10 11 10 11 12 13 14 16 17 20 21 20 18 16 13 11 13 19 25 27 27 28
4 6 9 9 6 6 7 7 8 7 6 4 5 6 9 14 15 14 14 11 6 5 8 10 11 13 13 11 11 10 9 10 13 13 13 12 11 10 9 9 8 8 8 11 14 15 16 17 19 20 20 20 22 22 22 21 18 17 18 18 17 14 12 10 9 9 9 8 8 8 8 8 10 12 13 15 16 16 16 16 14 13 15 19 24 27 27
3 6 7 7 6 7 5 4 4 3 3 3 6 7 9 14 17 14 10 8 7 9 12 12 13 14 13 12 11 10 10 11 12 13 13 12 11 10 9 8 8 8 10 12 15 16 16 17 19 21 21 21 21 21 21 20 19 18 17 16 16 14 13 12 10 8 9 9 8 7 6 5 6 6 7 8 9 10 11 14 16 17 16 16 18 22 24
3 7 6 5 5 3 3 6 5 2 0 4 7 9 11 12 11 9 9 9 9 11 12 14 14 13 12 11 10 10 11 10 10 11 11 11 11 10 8 7 7 10 13 14 16 18 17 16 18 20 21 21 20 19 19 18 18 18 17 15 15 15 14 13 11 9 8 7 7 7 5 4 4 4 3 3 3 5 7 10 13 15 17 18 18 18 20
1 4 5 5 1 4 7 6 3 1 5 9 10 8 9 10 10 12 14 13 11 11 10 10 11 11 11 10 9 10 11 10 11 12 11 10 11 10 7 7 8 11 13 14 15 17 17 15 16 18 19 18 17 17 18 18 17 18 18 16 15 14 15 15 12 10 10 10 9 8 7 6 4 4 4 2 1 1 3 6 9 11 14 16 17 18 19
1 3 4 2 4 6 5 5 5 5 6 9 10 8 3 3 11 17 16 12 11 13 12 10 9 9 9 8 6 7 9 11 11 11 10 10 10 9 8 9 10 13 14 14 15 18 20 17 16 17 17 16 15 15 16 17 17 17 18 18 16 14 15 15 14 12 10 11 12 11 11 10 9 8 7 6 5 4 4 4 6 8 10 13 15 16 18
1 2 1 1 2 3 6 5 4 3 0 5 8 6 5 4 6 14 15 13 13 13 14 13 11 10 9 7 4 4 8 10 10 11 12 13 13 13 12 13 15 18 18 18 20 24 24 21 17 15 16 17 15 14 14 14 15 15 17 19 18 15 14 15 15 14 12 12 13 12 12 13 13 12 11 10 8 7 6 6 6 6 7 9 11 13 15
2 3 2 3 2 1 4 6 7 6 2 4 8 8 4 6 4 8 13 14 15 14 14 15 13 10 9 7 3 4 7 9 11 13 16 17 17 16 15 16 19 22 22 22 23 25 24 22 18 15 16 16 16 15 13 12 13 13 14 16 17 15 14 13 13 13 13 13 13 13 13 13 14 15 14 14 13 10 8 7 7 7 7 7 8 10 12
3 4 3 1 1 2 5 7 8 9 3 3 8 9 4 3 3 6 9 10 12 14 14 14 13 10 8 6 4 4 7 10 12 14 14 17 17 16 16 19 21 22 21 21 22 22 22 20 18 16 15 15 16 15 13 13 13 12 11 12 14 14 13 13 13 13 13 13 13 13 14 14 15 15 14 14 15 13 10 8 9 8 7 7 8 9 10
2 3 1 1 2 3 4 5 7 9 4 5 9 7 4 5 3 5 11 9 8 10 11 10 7 6 7 7 5 5 10 14 15 16 15 15 17 17 19 20 20 20 20 21 20 20 20 17 15 14 14 14 15 15 13 13 15 16 12 11 12 12 11 11 12 13 14 14 14 14 15 16 15 15 15 14 14 14 12 9 9 10 8 7 8 9 9
1 1 1 1 2 3 4 4 7 8 3 7 7 5 6 5 2 6 11 10 6 6 8 7 4 4 7 8 7 9 13 14 14 17 19 19 20 20 20 19 19 20 20 20 19 18 16 15 14 13 12 13 14 14 13 13 16 16 14 11 10 11 10 10 11 13 14 15 15 15 16 17 16 15 16 16 15 12 11 10 10 10 10 9 9 10 10
1 1 2 1 3 3 3 4 6 5 4 3 3 4 3 1 3 7 10 11 9 8 9 9 8 8 9 10 10 10 12 12 12 16 20 21 21 21 20 19 18 18 18 18 17 16 14 14 14 12 12 13 13 12 12 14 15 14 13 12 11 11 11 9 10 13 15 15 16 16 16 17 18 17 16 16 16 12 8 9 12 13 13 13 13 13 13
0 2 3 1 2 4 4 3 5 5 4 5 5 1 3 4 6 8 9 10 11 12 12 10 11 11 11 11 11 10 10 10 12 16 19 19 19 19 20 18 16 15 16 15 15 15 13 12 13 12 12 12 12 12 11 12 13 12 11 11 10 11 11 10 11 13 14 14 15 15 16 18 19 17 16 15 16 14 11 10 13 15 17 17 17 17 17
1 1 1 2 5 6 3 3 2 1 2 4 4 4 5 5 5 6 6 7 9 12 14 12 11 12 11 10 10 10 9 9 12 16 18 19 19 18 18 16 14 13 14 13 12 13 12 11 11 12 12 11 11 11 11 11 12 12 11 10 10 10 11 11 12 11 11 13 13 13 15 17 16 15 15 15 14 15 14 13 15 17 17 17 17 17 19
2 4 4 4 4 3 3 4 4 3 4 4 5 6 6 5 5 5 6 7 7 10 13 12 10 9 9 9 9 9 9 8 11 15 17 18 19 17 16 14 12 12 12 11 10 10 10 10 10 10 10 10 9 9 10 10 11 12 12 11 11 11 11 12 12 11 11 12 11 12 14 15 14 13 14 15 14 15 15 15 17 18 18 16 16 17 18
1 1 1 1 3 4 5 5 4 5 5 4 5 7 6 5 5 6 6 7 6 7 9 10 8 8 9 9 9 9 9 9 12 15 17 17 17 16 14 13 11 10 9 9 9 8 8 8 9 9 9 9 10 10 9 9 10 11 12 11 11 11 12 12 12 12 12 11 10 11 13 12 11 11 13 15 16 16 17 18 19 20 19 18 18 19 20
1 0 2 1 3 5 5 5 5 6 6 5 5 6 6 5 6 7 7 8 7 7 8 9 8 8 10 10 9 8 8 9 11 15 16 16 14 12 10 10 9 8 7 7 7 6 5 6 7 8 9 10 11 11 11 10 10 10 11 11 12 12 13 13 13 13 13 12 11 10 10 10 10 11 12 15 16 17 18 19 20 20 21 20 20 20 21
2 1 3 2 2 2 4 4 4 5 6 6 6 6 6 7 8 7 8 9 8 6 7 9 9 9 10 10 10 8 8 9 12 15 16 16 15 12 10 9 8 7 6 5 3 3 5 6 7 8 9 10 11 11 11 11 10 11 11 11 12 13 14 14 14 14 15 14 13 12 11 9 10 12 14 16 17 16 16 18 20 21 20 20 20 20 20
1 1 4 5 6 6 8 7 5 2 3 6 7 7 7 8 8 8 8 9 10 9 9 8 9 9 8 9 10 9 8 9 13 16 17 17 16 14 12 10 7 4 2 0 1 4 6 7 8 8 9 10 11 11 10 10 11 11 11 11 12 13 13 14 15 15 16 16 16 14 13 11 11 12 13 16 17 17 16 14 15 17 18 18 19 20 20
1 2 3 2 3 2 3 5 6 6 3 5 8 7 7 8 8 8 7 7 9 12 13 12 12 9 7 10 13 11 10 13 16 18 19 19 17 14 11 7 3 2 2 2 4 7 7 6 7 7 8 9 10 10 10 9 9 10 11 11 12 12 13 14 15 16 16 17 17 14 11 11 11 11 12 13 14 14 14 13 12 13 15 17 18 20 23
3 4 2 1 3 3 1 4 5 6 5 5 5 4 4 6 6 7 8 7 5 7 10 15 17 12 10 15 17 13 13 18 20 19 19 19 16 12 8 4 4 4 6 6 7 7 6 7 7 7 9 10 10 11 11 10 9 9 10 11 12 13 14 15 16 16 16 17 18 15 12 11 12 12 13 13 12 11 11 12 13 15 16 17 19 21 23
3 3 1 3 4 2 3 5 5 5 5 5 5 4 3 2 1 2 6 8 8 6 6 11 18 19 18 19 20 16 15 19 21 20 19 18 14 10 7 6 7 9 11 9 7 6 6 7 7 7 9 10 10 10 11 11 10 10 10 12 13 13 14 15 16 16 16 17 17 16 14 13 13 14 14 14 12 11 11 13 15 17 19 20 23 23 21
3 3 2 3 3 1 3 5 5 6 6 5 4 5 5 5 5 4 1 4 7 9 9 9 14 21 22 21 21 21 20 20 22 23 21 18 14 11 9 10 12 13 12 9 7 6 6 5 6 7 9 9 9 10 11 11 11 11 12 13 14 14 14 15 16 16 15 15 14 13 12 12 13 13 12 12 13 14 14 15 17 19 21 22 23 22 19
3 3 4 1 1 1 2 3 4 5 5 4 3 2 6 7 7 7 5 3 4 8 13 14 16 21 24 23 22 23 22 22 24 25 23 18 16 14 14 16 16 14 12 10 9 8 6 5 5 6 8 9 10 10 11 12 13 13 13 13 14 14 14 15 15 13 11 10 10 10 10 11 11 11 12 13 15 17 18 18 19 20 22 22 22 21 20
1 2 5 3 1 1 1 2 3 4 4 4 3 1 2 4 5 6 5 5 5 5 13 20 20 21 23 23 23 23 23 23 24 23 21 19 18 18 19 19 16 14 13 12 11 9 7 5 4 5 6 7 9 11 12 13 14 14 13 13 14 14 14 14 14 12 11 11 10 10 10 10 11 12 14 16 18 18 18 18 18 19 21 22 22 22 22
2 2 3 4 3 3 5 6 7 6 2 3 4 4 4 4 4 3 3 4 6 5 7 15 19 19 19 20 21 21 22 23 22 20 19 20 22 23 22 19 16 14 13 12 11 9 7 6 4 4 5 6 7 9 11 13 14 14 14 14 15 15 14 14 13 12 12 12 12 12 12 11 11 13 15 16 17 18 19 20 20 20 21 22 23 23 23
0 0 1 3 5 5 4 3 4 4 3 2 2 2 4 3 3 2 2 3 3 3 4 7 11 16 19 21 21 21 21 20 20 20 22 25 25 23 20 18 16 14 12 11 9 8 7 7 5 4 5 5 6 7 8 10 13 14 14 13 13 14 14 14 14 14 13 12 12 12 13 13 13 15 16 16 18 19 20 21 21 22 22 23 23 23 22
3 3 3 5 4 3 3 3 3 4 3 2 2 1 1 0 1 3 4 3 2 2 3 4 6 12 17 21 22 23 23 22 22 24 26 26 24 22 20 18 17 15 13 11 9 7 8 7 6 5 3 3 6 7 7 8 9 11 11 11 12 13 13 14 15 15 15 15 14 14 14 15 15 16 16 17 18 19 20 21 22 22 23 23 23 22 22
5 5 3 3 2 2 0 3 2 2 2 2 2 1 2 2 2 4 4 1 1 2 4 6 9 12 16 20 22 24 25 25 26 26 25 23 21 19 17 16 15 14 13 11 9 8 7 6 5 4 2 3 5 6 6 7 8 9 9 11 12 12 13 14 15 15 16 16 17 16 17 17 16 17 18 19 19 20 21 21 21 21 22 22 22 22 23
6 7 6 4 4 5 3 2 2 2 2 1 2 3 3 3 3 4 4 3 2 3 4 6 9 10 11 15 20 24 25 27 27 25 23 22 20 18 15 14 14 14 12 10 9 8 7 6 4 2 1 3 5 5 5 7 8 8 8 10 11 12 13 14 15 15 15 15 16 17 17 17 18 19 20 20 20 20 20 21 21 21 21 22 22 23 25
5 5 6 5 4 4 4 3 3 3 4 4 4 5 7 7 6 5 6 6 5 6 6 8 10 11 10 12 17 23 25 24 23 23 23 23 21 19 17 15 14 13 12 10 10 10 8 6 4 2 2 4 5 5 4 5 7 8 8 9 10 11 12 13 13 14 14 14 15 15 16 17 18 19 20 21 20 20 21 22 22 22 22 23 23 24 25
4 4 6 7 5 4 4 4 4 4 4 5 6 7 7 8 9 9 8 7 7 7 9 10 11 13 14 14 17 21 22 19 17 18 21 24 22 20 18 16 14 14 13 12 11 10 8 6 4 3 4 4 5 4 3 4 7 8 8 8 10 11 12 13 13 14 15 15 15 15 16 17 18 19 20 21 21 22 22 22 22 22 23 23 24 24 25
7 8 10 10 9 7 7 6 5 5 5 4 5 6 8 9 11 10 9 8 9 10 11 12 13 16 18 19 19 19 18 17 17 19 22 23 22 20 18 17 16 16 15 12 10 8 7 5 4 4 4 4 5 5 4 4 7 8 7 8 9 11 12 13 14 14 15 16 17 17 17 17 18 19 19 20 21 21 22 22 23 23 24 24 25 25 25
11 9 8 10 11 11 9 8 7 6 6 6 7 8 10 10 10 11 11 11 10 9 9 11 13 16 18 19 18 17 17 19 21 22 22 21 20 19 18 18 17 17 15 12 8 6 4 3 3 3 3 4 5 5 4 5 7 8 8 8 10 10 10 12 14 15 16 16 17 17 17 17 17 17 18 19 20 21 21 22 23 23 23 24 25 25 26
15 12 10 10 12 11 10 9 9 9 9 9 10 11 12 11 11 12 13 13 12 12 13 14 15 17 18 18 17 17 19 20 22 23 22 20 19 18 17 17 17 14 12 9 6 4 3 3 2 2 3 4 4 5 5 5 7 8 10 11 11 10 10 11 13 14 15 15 15 15 15 15 16 16 16 17 18 19 20 21 22 22 23 24 25 25 25
16 14 12 11 11 10 10 10 11 12 12 11 10 11 11 9 8 9 12 14 15 16 17 18 18 19 20 20 20 20 21 23 23 23 21 18 16 15 15 16 14 11 9 7 5 3 3 2 0 2 2 3 5 7 8 8 8 10 11 12 10 9 9 10 11 12 13 13 14 14 14 14 15 15 15 16 17 18 19 19 20 21 22 23 24 24 23
12 12 12 12 11 12 12 12 12 13 13 12 12 12 10 8 6 7 10 14 17 18 19 19 19 18 18 19 19 19 21 22 22 20 18 16 15 15 15 13 11 9 8 6 4 3 3 2 1 0 2 4 8 10 10 9 8 9 10 10 9 9 9 9 10 11 12 12 13 13 14 14 14 15 15 16 17 18 19 19 20 21 21 21 21 22 22
9 11 12 12 11 11 12 12 12 14 14 14 13 12 11 9 9 9 11 14 17 19 20 21 20 19 18 18 18 18 20 22 21 20 19 18 19 19 17 13 10 8 7 5 4 4 4 3 2 1 4 7 9 10 9 8 7 7 8 8 9 9 8 8 9 10 11 11 12 13 14 13 14 14 15 16 17 18 19 20 20 20 21 21 21 21 21
11 13 14 13 12 13 14 13 14 15 15 14 14 14 14 11 10 10 13 17 18 20 22 24 23 20 20 20 20 21 22 22 22 21 20 20 20 19 16 13 10 8 6 5 5 6 5 4 2 2 5 8 8 7 7 7 7 6 7 7 7 8 8 9 9 9 10 11 13 14 14 14 15 16 16 17 18 19 19 19 19 19 20 21 21 21 21
13 15 15 14 13 14 14 14 15 15 15 15 16 16 16 15 13 14 16 19 19 20 21 22 22 22 22 22 22 22 21 21 20 18 17 18 18 17 15 13 11 8 7 6 6 6 5 4 1 3 6 7 7 6 6 6 6 7 8 8 8 8 8 8 9 10 12 13 14 14 14 15 16 18 19 19 19 19 19 19 19 19 20 21 21 21 21
14 15 14 13 14 14 14 15 14 13 13 15 16 15 15 15 15 15 16 18 18 18 17 18 20 23 25 24 22 20 19 19 18 15 14 15 15 14 13 13 12 9 7 6 6 6 5 3 1 4 5 5 6 5 5 5 6 7 7 8 8 8 8 8 9 11 13 14 14 15 15 15 17 18 19 19 19 19 19 19 19 20 20 21 21 21 21
16 16 14 14 16 16 15 14 12 11 13 16 18 17 16 17 16 16 18 18 16 15 16 18 21 24 25 24 22 20 18 18 18 17 16 15 13 11 11 12 12 10 8 7 7 8 7 3 2 4 4 4 5 4 4 5 6 7 7 8 8 8 7 8 9 11 12 13 13 14 14 15 16 18 19 19 18 19 19 19 19 20 20 20 20 20 21
17 16 15 16 17 16 15 14 13 13 13 14 13 12 13 14 15 16 19 21 20 19 19 19 21 23 24 23 21 20 19 18 18 18 17 15 13 12 11 11 11 9 8 7 8 8 7 3 2 4 4 4 4 5 6 7 7 8 7 8 8 9 8 8 9 10 12 14 14 13 14 15 16 17 19 19 19 19 19 19 18 19 19 20 20 20 20
15 14 13 13 14 14 14 14 12 9 7 5 4 4 7 11 14 17 20 21 21 21 22 22 23 24 24 22 21 18 16 15 16 17 16 15 14 15 15 13 12 10 8 8 9 8 6 2 2 4 4 3 4 7 8 8 7 7 7 7 8 9 9 9 9 10 12 14 14 13 13 14 16 17 18 18 19 19 19 19 19 19 19 19 18 19 18
12 11 11 11 10 9 9 8 6 7 8 6 6 7 8 11 15 18 19 19 20 21 22 22 22 21 20 20 19 17 15 14 14 14 15 15 16 17 17 15 13 11 9 9 9 7 5 4 2 4 3 1 3 6 7 7 7 7 7 7 8 9 10 10 10 10 11 13 14 14 13 13 15 17 18 18 18 19 19 19 19 19 19 18 18 19 18
10 9 9 8 6 3 3 3 6 9 10 9 10 12 14 17 19 18 17 17 19 20 20 20 19 18 18 18 17 17 17 16 14 13 15 17 18 18 17 15 12 11 10 9 8 7 6 5 3 3 2 0 3 5 6 6 7 8 8 8 8 9 10 10 10 10 11 13 14 14 13 13 15 17 18 17 18 19 19 18 18 18 18 19 19 19 18
10 9 7 6 5 2 1 3 5 7 9 12 14 14 16 19 18 14 11 14 17 19 18 18 17 17 17 17 16 17 18 18 15 15 17 18 17 16 16 14 12 11 11 10 8 8 8 6 4 4 4 2 3 5 6 6 6 6 7 7 8 9 9 9 9 9 10 12 14 14 13 14 16 17 17 17 18 18 17 17 18 18 18 18 18 18 17
12 11 11 10 9 6 4 6 7 8 11 14 14 14 15 17 15 11 10 12 14 15 17 18 18 18 18 16 15 16 17 17 15 16 17 17 17 16 15 14 12 12 12 10 8 8 8 8 8 7 6 4 5 6 7 7 6 5 6 7 8 8 8 8 8 9 10 11 12 13 13 14 15 15 16 17 18 17 16 16 17 17 17 17 17 16 14
12 11 11 12 12 11 9 8 9 10 13 14 14 14 14 12 10 11 14 14 11 12 16 17 17 18 19 17 15 15 16 15 15 16 16 16 16 16 15 13 13 12 12 10 10 9 10 11 12 10 8 8 8 8 8 7 6 6 6 7 8 8 7 8 9 10 10 10 11 12 13 13 13 13 15 17 17 16 15 16 17 17 16 16 15 13 11
12 11 12 13 15 15 14 14 13 13 13 12 12 13 12 9 7 9 12 11 9 11 16 17 16 18 20 18 14 14 15 14 13 14 15 14 13 14 14 13 13 12 11 11 12 12 12 12 13 12 11 10 10 9 9 9 9 8 8 8 8 8 7 8 9 10 9 9 11 12 13 12 12 13 15 16 15 14 14 15 15 15 15 14 13 11 10
Wind_Direction
355 360 9 43 49 39 46 64 60 41 49 81 90 114 148 146 124 144 167 153 144 157 165 162 167 166 152 148 144 136 131 126 122 116 106 97 90 87 87 84 77 74 72 67 65 67 66 65 69 73 73 77 84 88 92 107 123 126 126 141 163 190 207 208 214 226 233 231 221 214 214 213 213 214 214 214 215 218 223 230 233 232 232 234 233 232 233
351 353 7 37 51 38 20 31 44 43 59 102 120 125 126 112 119 135 143 143 144 151 160 163 161 156 149 145 141 136 131 126 118 110 104 99 93 89 89 86 82 81 78 73 69 67 66 64 64 63 64 71 77 78 80 85 94 92 87 98 120 143 168 186 199 210 219 220 215 213 217 219 222 224 222 220 222 223 224 231 238 237 235 234 234 234 235
329 341 6 17 39 53 33 13 10 26 46 71 90 99 99 98 111 128 130 130 140 153 154 147 137 139 141 138 138 135 126 120 112 102 98 96 91 86 82 79 78 79 80 76 70 67 66 65 65 62 62 66 70 71 73 76 79 82 82 87 99 113 129 145 160 177 191 197 199 202 208 214 220 224 224 227 232 233 232 236 246 245 241 238 236 236 236
310 331 0 356 14 57 43 8 355 11 37 57 74 104 122 123 124 127 129 135 152 155 138 125 122 130 133 133 131 124 117 119 113 106 102 97 91 85 80 76 72 71 74 74 69 68 70 70 68 66 67 70 71 71 74 77 80 81 79 78 84 93 101 109 122 131 137 146 160 169 177 192 204 211 218 227 235 239 238 241 246 247 246 242 238 237 236
295 317 349 357 25 49 24 323 301 331 360 48 80 90 116 133 136 139 145 153 154 142 131 124 125 128 129 130 128 120 120 121 114 112 111 105 100 93 82 76 71 70 76 76 71 69 73 75 72 71 75 78 78 77 78 83 86 87 85 78 73 74 76 75 80 98 112 114 110 114 132 155 177 189 201 217 232 242 242 242 244 248 249 247 243 239 236
286 308 341 23 46 56 257 250 236 228 51 85 98 114 135 142 133 126 134 140 141 138 133 129 130 132 130 133 132 127 125 123 117 116 114 110 108 102 93 85 77 77 83 85 79 72 72 80 82 79 80 83 81 76 73 77 82 83 83 80 71 66 65 61 56 57 64 75 76 71 73 90 111 128 145 176 217 240 241 238 239 242 245 246 247 245 241
244 320 19 52 74 229 240 261 297 57 108 104 92 104 142 146 120 114 129 143 143 131 120 119 122 124 125 127 129 128 127 124 121 117 114 114 112 106 104 101 82 77 83 89 86 72 65 77 92 91 88 86 82 74 68 68 72 71 69 70 68 63 60 57 54 53 48 45 44 42 36 34 39 48 53 55 45 291 268 255 248 245 247 248 249 248 248
322 16 57 121 227 259 289 314 354 32 75 98 86 59 18 149 137 135 140 144 134 120 112 106 104 105 106 101 99 117 123 120 121 123 123 121 115 111 116 109 88 81 85 86 77 65 63 79 99 98 92 92 90 82 72 66 64 60 55 53 53 54 54 51 50 53 50 38 33 32 31 28 26 22 13 4 355 337 321 303 281 269 264 261 259 254 251
66 88 80 262 272 327 337 328 323 337 330 142 123 93 1 351 131 141 142 135 129 126 123 120 119 115 103 84 67 104 119 116 116 120 119 115 113 112 111 99 87 86 87 79 71 68 71 81 94 93 87 88 90 86 79 70 62 56 47 42 40 44 46 44 43 45 42 33 27 26 25 23 22 21 15 7 358 342 329 325 316 303 293 283 276 269 261
44 82 53 3 23 344 286 280 291 301 273 147 120 105 54 1 54 126 140 139 135 136 136 138 142 132 108 99 116 128 118 111 108 107 107 107 108 108 101 89 84 85 84 77 74 75 74 74 78 83 82 82 81 77 72 66 60 57 50 39 31 32 34 34 36 38 36 31 28 25 22 16 11 8 6 7 6 358 343 336 330 319 309 302 295 289 280
27 80 90 64 140 222 250 258 285 302 302 102 89 95 108 322 6 101 123 132 136 140 145 147 147 135 117 126 157 138 108 102 102 104 104 104 104 101 95 88 84 83 81 76 73 72 69 66 68 74 78 77 71 64 57 50 42 41 44 36 23 18 20 21 24 27 27 24 22 22 19 14 9 3 358 358 360 359 353 345 342 337 323 310 307 305 300
11 80 96 258 201 230 260 268 285 292 305 68 76 107 177 268 286 133 125 123 131 137 139 138 130 124 135 147 159 130 105 98 99 104 105 104 101 97 92 88 84 80 77 74 69 65 63 62 61 64 69 67 59 52 49 44 31 22 22 23 14 7 5 5 6 12 18 20 18 17 13 10 9 9 5 359 353 353 355 353 348 346 343 333 323 318 312
349 71 114 279 260 256 272 279 288 297 349 65 86 167 221 268 252 148 124 117 124 127 123 117 89 87 121 132 132 118 105 99 100 102 101 99 97 94 90 89 86 81 76 73 70 66 62 59 57 58 62 59 52 47 45 38 25 15 14 14 4 355 354 353 352 358 7 12 12 10 9 9 6 4 6 7 1 354 356 5 7 3 360 357 351 344 336
280 127 115 311 279 273 274 275 299 340 56 104 183 217 260 327 121 124 115 120 128 116 107 110 113 114 116 117 116 110 105 105 104 99 97 95 93 90 88 87 86 82 76 73 71 65 58 55 54 53 56 55 47 40 36 27 14 7 10 11 3 358 1 359 351 350 352 358 3 3 4 4 1 358 2 9 10 4 2 15 24 24 19 14 9 3 353
189 82 73 77 235 269 304 329 339 12 87 180 208 166 29 37 94 106 108 120 126 119 113 114 119 120 116 114 113 107 105 106 101 98 98 97 93 90 87 84 82 82 78 73 70 65 57 52 49 43 43 44 35 26 21 11 360 355 360 3 1 4 8 3 353 347 344 347 353 355 356 358 358 3 11 15 16 18 20 22 24 21 17 13 10 6 357
112 112 189 196 218 258 306 82 110 16 110 165 168 109 67 48 68 88 97 106 114 119 121 119 119 120 118 118 118 113 110 107 102 100 101 99 96 93 87 82 79 79 76 69 64 59 50 45 43 36 33 31 23 16 11 1 350 346 346 347 347 351 354 352 350 346 339 339 341 342 347 352 357 7 16 19 22 23 20 18 15 10 6 4 2 359 353
155 176 207 220 223 259 3 79 128 127 94 107 115 102 89 75 68 74 91 98 102 111 117 120 120 120 119 120 118 114 112 110 105 104 103 102 100 94 87 83 79 72 70 65 57 47 36 33 33 27 24 20 12 9 6 359 352 348 342 336 334 338 340 341 345 344 332 327 329 331 337 345 353 360 4 7 11 11 7 5 2 358 356 354 351 349 345
324 160 185 195 157 129 81 74 100 102 94 95 96 96 99 104 102 100 101 103 100 102 110 116 117 118 121 120 116 114 112 107 105 105 103 100 98 92 84 83 81 77 73 67 58 46 30 22 18 11 8 5 359 357 354 350 350 350 346 339 333 333 334 332 335 339 333 323 318 322 331 339 347 352 354 356 357 358 358 358 356 353 350 344 340 339 339
76 30 320 299 162 143 117 104 93 80 80 88 97 106 119 124 120 122 121 116 111 103 106 114 120 125 127 124 121 120 117 113 112 109 105 100 95 90 88 88 89 90 83 68 55 41 21 14 14 8 3 1 358 356 352 346 341 338 339 341 336 331 332 331 329 332 334 327 311 307 321 336 340 339 343 347 350 352 352 352 350 347 346 343 338 334 331
154 198 306 332 79 50 41 74 96 95 99 103 103 114 126 125 125 131 132 127 123 118 120 123 125 130 133 133 132 128 122 121 121 117 114 111 106 103 105 107 103 94 83 68 47 36 32 29 22 7 355 350 347 347 349 350 344 334 331 334 334 330 328 327 326 328 332 330 318 304 304 315 324 327 332 335 336 338 341 342 340 338 340 344 345 340 334
6 8 358 27 58 34 10 16 28 41 112 121 116 113 115 118 122 129 134 136 136 137 138 131 123 127 133 129 126 125 124 127 127 125 122 118 115 113 112 110 103 89 75 47 81 71 54 32 13 356 344 339 337 336 339 342 339 333 327 324 325 328 325 323 324 326 328 331 328 311 294 293 304 312 318 322 320 319 323 330 334 336 342 347 347 344 338
280 254 305 342 109 98 360 359 3 353 9 116 124 125 126 130 135 137 137 142 143 143 143 135 124 123 132 130 126 127 133 133 132 131 128 124 123 123 116 111 124 176 204 156 99 79 55 28 11 359 353 356 357 355 351 345 338 335 333 327 322 324 326 325 325 325 327 332 334 319 293 291 303 306 310 316 315 314 321 326 326 328 333 336 336 335 332
208 222 266 340 116 131 317 338 358 357 11 67 90 110 144 160 167 156 146 147 152 156 157 149 140 138 144 141 134 131 140 142 140 139 139 136 133 129 124 133 169 160 135 115 95 71 47 35 27 19 18 22 21 15 11 10 3 355 350 344 335 328 325 321 320 322 324 328 331 323 303 298 307 307 310 318 318 315 320 321 314 311 314 317 319 322 324
185 202 161 74 92 103 323 337 4 11 19 51 50 31 56 110 130 154 164 173 173 170 177 171 161 155 154 151 145 143 149 150 146 145 147 147 145 142 148 161 152 131 119 108 91 71 59 48 37 34 34 31 22 15 11 10 9 7 3 358 348 338 330 322 317 317 319 322 325 319 304 301 310 314 316 323 324 316 308 304 303 306 311 315 318 321 324
174 182 125 77 86 85 349 345 360 10 23 54 50 9 9 38 48 47 79 213 197 171 164 179 178 168 162 158 154 154 156 157 155 153 153 152 154 156 155 148 137 127 120 113 102 96 87 61 36 35 39 32 19 12 6 2 4 6 6 2 355 346 339 332 323 317 316 321 327 324 313 310 317 322 324 329 329 323 314 307 306 310 312 316 322 327 330
176 143 115 88 317 11 21 349 336 339 1 53 82 10 353 6 16 24 24 333 263 197 175 174 178 174 171 168 164 162 162 161 159 158 157 156 158 154 145 140 137 132 126 122 116 110 97 67 35 30 32 26 16 10 2 355 354 357 360 1 358 353 348 344 337 330 325 326 330 331 328 324 321 319 320 322 323 324 321 318 317 318 318 319 324 332 336
314 137 139 152 256 315 170 186 222 267 317 3 23 330 336 350 344 343 352 351 331 246 196 184 178 176 177 176 172 169 166 162 159 160 161 159 153 146 140 139 138 132 126 121 115 106 91 70 52 43 34 16 2 360 354 345 343 347 352 355 356 356 355 353 350 345 338 332 325 321 320 321 319 317 315 315 317 319 320 321 321 322 322 323 325 329 334
27 39 118 152 190 212 202 195 201 219 263 2 350 331 340 338 323 324 329 340 348 325 231 199 185 177 175 176 173 167 162 160 161 161 157 151 145 142 142 141 138 133 125 116 108 101 89 81 82 70 43 15 356 352 349 344 341 342 344 347 352 356 359 1 1 357 349 341 333 325 319 317 316 316 316 315 316 317 318 320 320 319 319 320 321 324 328
314 337 133 188 197 194 198 224 242 242 215 153 124 27 14 348 315 307 279 266 299 324 284 225 195 178 170 167 166 162 160 163 162 155 148 146 144 144 143 140 136 132 125 114 107 101 98 99 97 76 45 19 3 358 353 345 340 338 341 348 353 354 353 352 354 357 355 348 342 337 331 326 321 318 317 316 317 318 319 320 319 317 316 316 318 320 322
284 267 250 249 233 193 192 229 247 250 232 159 121 58 27 360 285 277 269 260 241 226 226 213 192 176 166 162 165 167 168 166 158 149 146 146 144 143 142 139 134 130 125 118 110 106 110 114 106 89 58 2 348 352 353 350 345 343 346 349 347 345 346 345 345 347 347 344 341 340 338 336 334 331 329 327 325 324 323 322 320 318 316 316 316 316 317
299 304 294 295 343 44 246 239 224 220 211 161 146 247 311 347 329 291 285 315 76 174 189 186 193 193 180 170 169 169 165 158 151 146 146 145 142 142 145 145 140 133 128 124 118 116 121 125 119 110 84 353 349 349 349 357 2 358 352 348 342 338 340 343 342 342 341 337 336 336 336 336 335 334 333 331 329 327 325 323 321 319 317 316 315 314 315
354 347 351 360 20 29 10 341 2 355 314 250 197 212 231 245 262 272 279 279 237 215 203 192 197 204 195 175 164 157 151 148 146 144 142 141 140 140 143 143 139 132 128 125 124 126 132 132 123 114 17 354 3 359 352 1 8 3 352 347 343 337 336 338 337 334 332 330 328 329 330 330 329 329 329 328 328 326 324 322 320 318 316 314 313 312 314
49 6 337 324 330 347 340 323 320 310 292 281 272 253 237 227 226 242 267 274 254 230 223 209 192 189 194 182 163 151 146 143 141 140 139 138 138 138 137 135 130 125 123 125 127 129 130 127 110 71 2 357 6 5 356 360 3 358 351 347 344 340 338 335 331 327 327 325 322 321 323 324 323 323 323 324 324 323 321 318 316 314 312 310 309 311 314
155 206 245 252 251 259 265 266 274 278 276 285 294 284 266 247 238 239 252 261 251 241 244 235 206 184 179 175 163 153 147 143 141 141 141 139 138 136 134 130 127 124 123 124 126 126 122 112 83 22 350 356 1 351 329 334 345 348 349 349 346 341 334 329 325 323 322 320 318 317 318 319 318 317 316 316 316 316 315 314 312 311 309 308 308 310 313
225 236 251 258 258 252 247 247 254 259 263 272 284 289 285 270 253 241 236 238 243 249 250 236 209 183 169 165 165 162 157 151 148 145 142 140 138 136 133 130 128 125 120 115 116 120 119 108 65 10 353 352 341 321 307 329 344 343 341 343 342 336 329 323 319 316 315 315 315 315 315 314 313 311 309 307 308 309 308 308 309 308 307 306 307 308 311
255 255 259 268 273 272 268 266 265 265 271 275 274 277 281 275 258 240 231 230 232 230 218 201 187 174 166 166 168 165 157 150 145 141 139 138 137 136 134 132 130 126 119 112 110 110 109 97 60 20 3 351 333 318 322 348 350 343 339 342 341 336 327 318 311 307 308 308 309 309 311 310 308 306 306 305 305 305 304 304 304 304 303 303 305 306 308
259 255 255 264 271 272 272 276 279 279 278 281 283 281 276 273 265 252 240 231 220 210 198 182 168 162 160 161 160 153 146 142 138 136 135 135 133 131 129 128 129 129 125 119 114 103 88 81 59 14 349 341 337 337 343 347 341 336 336 338 336 329 319 310 303 300 299 301 303 306 310 311 308 307 308 307 306 305 303 302 302 301 301 302 304 305 304
262 263 266 269 268 267 270 276 281 280 274 271 277 281 277 274 274 262 244 230 218 208 198 185 173 164 157 153 150 145 140 138 136 133 131 130 128 128 128 129 132 136 135 128 116 98 93 107 140 323 337 341 343 343 341 333 325 326 330 331 330 327 318 307 297 294 295 300 305 308 311 312 311 310 310 308 306 304 302 300 300 300 300 301 302 303 303
272 271 271 268 265 266 268 268 270 273 270 263 263 269 271 268 264 255 240 228 218 209 198 187 177 167 157 151 148 144 143 143 141 137 136 135 133 131 132 133 134 133 130 127 122 116 128 156 197 320 5 353 345 343 339 332 325 326 329 330 329 323 312 301 296 300 304 307 309 312 313 314 315 314 313 310 307 304 302 301 300 299 299 300 301 301 301
275 271 269 267 263 264 266 265 265 270 271 267 264 266 266 258 248 240 230 220 213 206 195 184 174 166 161 156 148 144 145 146 144 141 141 139 134 128 128 132 135 131 126 124 127 132 139 142 124 39 354 344 343 341 338 336 335 334 336 337 331 321 312 309 311 315 320 323 324 326 326 323 317 315 315 314 311 309 308 308 306 304 303 303 302 301 301
275 272 269 265 260 257 256 256 259 264 268 271 273 273 269 260 250 238 227 216 206 196 188 180 172 165 160 154 149 146 146 145 143 143 142 140 135 132 135 143 146 139 132 137 140 136 134 133 105 10 349 349 353 353 349 351 355 357 356 351 341 331 331 332 328 325 329 335 335 332 331 327 322 319 319 318 316 314 312 310 308 307 307 306 306 305 304
280 277 271 265 264 262 258 254 252 253 257 265 272 272 263 254 246 238 226 211 195 184 181 179 171 161 154 149 145 144 145 144 144 146 148 149 147 146 148 153 154 145 139 147 150 145 149 156 106 12 8 7 7 4 2 5 7 2 358 356 349 340 335 332 332 335 338 337 333 330 329 327 323 321 320 319 317 315 312 309 308 308 307 307 307 307 306
285 281 274 267 264 263 262 259 253 248 252 261 266 261 250 241 236 225 209 197 187 181 178 172 161 151 147 145 142 142 145 148 149 148 146 151 158 162 159 154 153 154 155 153 148 154 171 182 57 30 25 18 13 8 5 5 1 354 353 355 353 346 335 330 336 343 342 336 331 329 327 324 322 322 321 319 316 313 309 307 307 307 308 308 307 306 305
286 280 273 267 263 263 262 256 248 243 250 258 258 250 238 231 223 208 190 180 176 174 169 160 151 145 144 146 148 150 153 155 152 144 134 131 141 156 158 151 151 158 161 155 154 169 186 190 63 46 39 28 21 11 355 350 350 352 355 354 349 344 339 335 336 338 337 332 327 325 323 322 323 325 326 325 322 318 315 312 310 309 309 309 308 306 304
292 286 280 272 266 263 258 252 247 247 248 248 244 235 225 219 210 194 178 169 167 168 166 156 147 143 145 149 154 157 160 163 162 157 147 141 145 156 161 160 163 168 167 164 170 181 191 185 70 60 54 33 13 357 346 342 344 348 353 352 344 339 336 332 326 328 333 332 325 319 319 323 326 328 330 329 327 324 322 318 315 312 311 310 309 308 307
307 305 304 294 279 267 261 258 252 239 223 206 174 171 193 198 190 177 167 162 161 160 157 151 146 146 149 153 155 156 160 168 176 179 178 171 164 164 167 171 172 170 170 178 184 188 194 198 97 75 67 33 352 347 345 341 338 339 340 341 340 339 335 326 319 323 332 333 327 320 320 323 325 326 326 325 325 325 324 318 314 315 315 313 312 311 310
324 330 335 327 307 283 269 259 221 172 160 148 118 113 133 151 152 147 143 143 143 141 142 147 153 155 157 160 163 165 163 162 169 184 190 179 164 164 173 178 176 173 178 189 192 192 199 206 164 110 91 35 343 343 340 334 333 333 331 329 332 334 333 328 323 322 326 330 329 325 322 321 321 321 320 319 322 327 326 320 314 315 317 316 316 315 314
340 341 344 344 340 313 261 216 166 151 150 148 137 125 120 124 127 126 126 134 143 146 148 154 160 163 165 169 174 178 175 166 162 175 184 175 164 166 175 178 175 176 187 196 199 199 206 209 180 142 135 319 330 334 329 326 330 331 327 325 326 327 328 330 327 321 323 329 332 329 327 326 323 320 319 319 321 324 324 322 318 317 316 315 316 316 314
10 13 15 22 31 39 108 139 140 142 141 141 141 138 131 131 134 135 134 141 151 157 160 164 168 170 174 176 179 181 180 175 167 167 172 170 168 173 180 180 179 186 195 200 201 204 209 212 197 179 184 236 302 309 307 312 321 323 317 315 318 320 324 327 323 317 322 332 334 331 328 328 325 322 321 320 319 318 319 321 321 319 315 314 314 314 314
27 39 44 47 49 56 86 115 127 134 135 136 141 147 145 142 144 148 150 153 158 163 166 170 172 171 170 169 169 171 173 169 162 162 169 174 178 183 184 182 183 192 201 207 209 208 206 206 206 205 213 240 268 279 284 290 297 300 299 304 311 316 318 318 316 316 324 333 334 328 326 328 329 325 322 320 319 317 316 318 319 319 316 314 314 316 318
37 47 53 56 60 68 84 105 123 134 138 139 141 142 141 139 140 148 156 164 172 168 161 161 164 164 161 158 157 162 167 166 161 164 171 178 182 186 189 190 192 199 205 210 214 214 207 206 213 224 235 242 252 263 268 270 275 283 290 301 312 316 311 307 308 311 317 325 326 323 324 329 330 323 318 318 319 316 314 315 317 318 317 315 313 314 317
50 54 58 59 62 69 79 89 100 113 126 133 132 130 133 141 148 152 159 174 187 175 162 159 159 161 162 161 159 163 171 173 171 174 180 186 189 193 198 202 207 212 214 215 220 223 219 216 223 235 238 237 244 255 257 257 265 278 288 297 306 307 301 300 303 302 303 309 315 317 319 323 321 315 314 317 318 314 311 312 315 317 317 315 313 311 311